TimeEST,TemperatureF,Dew PointF,Humidity,Sea Level PressureIn,VisibilityMPH,Wind Direction,Wind SpeedMPH,Gust SpeedMPH,PrecipitationIn,Events,Conditions,WindDirDegrees,DateUTC
12:53 AM,39.0,35.1,86,30.29,6.0,East,9.2,-,N/A,,Overcast,80,2012-02-04 05:53:00
1:53 AM,37.9,34.0,86,30.28,4.0,ENE,10.4,-,N/A,,Overcast,60,2012-02-04 06:53:00
2:08 AM,37.4,33.8,87,30.28,4.0,ENE,11.5,-,N/A,,Overcast,60,2012-02-04 07:08:00
2:53 AM,37.0,33.1,86,30.30,4.0,ENE,9.2,-,N/A,,Overcast,60,2012-02-04 07:53:00
3:53 AM,36.0,32.0,86,30.28,4.0,East,10.4,-,N/A,,Overcast,80,2012-02-04 08:53:00
4:53 AM,35.1,32.0,89,30.27,4.0,ENE,11.5,-,N/A,,Overcast,60,2012-02-04 09:53:00
5:42 AM,35.6,30.2,81,30.27,2.5,ENE,11.5,-,0.01,Rain,Light Rain,60,2012-02-04 10:42:00
5:53 AM,34.0,30.9,89,30.28,3.0,ENE,12.7,-,0.01,Rain,Light Rain,60,2012-02-04 10:53:00
6:05 AM,33.8,30.2,87,30.27,2.5,ENE,12.7,-,0.01,Rain,Light Rain,60,2012-02-04 11:05:00
6:32 AM,33.8,30.2,87,30.26,3.0,East,12.7,-,0.01,Rain,Light Rain,90,2012-02-04 11:32:00
6:53 AM,34.0,30.9,89,30.25,2.0,East,13.8,-,0.03,Snow,Light Snow,80,2012-02-04 11:53:00
7:06 AM,33.8,30.2,87,30.24,1.8,East,12.7,-,0.02,Snow,Light Snow,80,2012-02-04 12:06:00
7:18 AM,33.8,30.2,87,30.23,2.5,East,15.0,-,0.03,Rain,Light Rain,80,2012-02-04 12:18:00
7:32 AM,33.8,30.2,87,30.23,3.0,East,11.5,21.9,0.04,Rain,Light Rain,80,2012-02-04 12:32:00
7:53 AM,34.0,30.9,89,30.25,3.0,ENE,11.5,-,0.06,Rain,Light Rain,70,2012-02-04 12:53:00
8:02 AM,33.8,30.2,87,30.24,3.0,East,11.5,-,0.00,Rain,Light Rain,80,2012-02-04 13:02:00
8:30 AM,33.8,30.2,87,30.23,2.0,East,13.8,-,0.02,Rain,Light Rain,90,2012-02-04 13:30:00
8:36 AM,33.8,30.2,87,30.24,1.8,East,12.7,-,0.03,Rain,Rain,90,2012-02-04 13:36:00
8:53 AM,34.0,30.9,89,30.25,1.8,East,11.5,-,0.06,Rain,Light Rain,80,2012-02-04 13:53:00
8:58 AM,33.8,30.2,87,30.24,2.0,East,10.4,-,0.01,Rain,Light Rain,80,2012-02-04 13:58:00
9:09 AM,33.8,30.2,87,30.24,1.5,ENE,10.4,-,0.02,Snow,Light Snow,70,2012-02-04 14:09:00
9:51 AM,33.8,30.2,87,30.25,2.0,ENE,11.5,-,0.02,,Overcast,60,2012-02-04 14:51:00
9:53 AM,34.0,30.9,89,30.26,2.0,ENE,11.5,-,0.02,,Overcast,60,2012-02-04 14:53:00
10:06 AM,33.8,32.0,93,30.23,1.5,East,13.8,-,0.00,Rain,Light Rain,80,2012-02-04 15:06:00
10:15 AM,33.8,32.0,93,30.22,1.8,East,13.8,-,0.00,Rain,Light Rain,90,2012-02-04 15:15:00
10:28 AM,35.6,32.0,87,30.22,2.0,East,13.8,-,0.01,,Overcast,90,2012-02-04 15:28:00
10:53 AM,36.0,33.1,89,30.22,2.5,East,13.8,-,0.01,,Overcast,100,2012-02-04 15:53:00
11:00 AM,35.6,33.8,93,30.20,3.0,East,16.1,-,0.00,Rain,Light Rain,90,2012-02-04 16:00:00
11:53 AM,36.0,33.1,89,30.22,7.0,East,13.8,-,0.00,,Overcast,100,2012-02-04 16:53:00
12:53 PM,37.0,34.0,89,30.20,8.0,East,10.4,-,N/A,,Overcast,80,2012-02-04 17:53:00
1:53 PM,37.9,35.1,89,30.15,7.0,East,13.8,-,0.00,Rain,Light Rain,90,2012-02-04 18:53:00
2:37 PM,39.2,35.6,87,30.13,8.0,East,10.4,-,0.00,,Overcast,90,2012-02-04 19:37:00
2:53 PM,39.0,35.1,86,30.14,8.0,East,10.4,-,0.00,,Overcast,90,2012-02-04 19:53:00
3:53 PM,39.9,35.1,83,30.13,10.0,ENE,9.2,-,N/A,,Overcast,70,2012-02-04 20:53:00
4:34 PM,37.4,35.6,93,30.11,6.0,NE,12.7,-,0.00,Rain,Light Rain,50,2012-02-04 21:34:00
4:50 PM,37.4,35.6,93,30.11,7.0,ENE,10.4,-,0.00,,Overcast,60,2012-02-04 21:50:00
4:53 PM,37.0,35.1,93,30.13,7.0,ENE,10.4,-,0.00,,Overcast,60,2012-02-04 21:53:00
5:53 PM,37.0,34.0,89,30.12,9.0,ENE,11.5,-,N/A,,Overcast,70,2012-02-04 22:53:00
6:53 PM,36.0,34.0,93,30.13,6.0,ENE,10.4,-,0.00,,Overcast,60,2012-02-04 23:53:00
7:53 PM,35.1,33.1,92,30.14,5.0,ENE,10.4,-,0.00,,Overcast,60,2012-02-05 00:53:00
8:36 PM,35.6,33.8,93,30.13,3.0,ENE,6.9,-,0.00,Snow,Light Snow,70,2012-02-05 01:36:00
8:53 PM,35.1,32.0,89,30.16,3.0,NE,8.1,-,0.01,Snow,Light Snow,40,2012-02-05 01:53:00
9:15 PM,33.8,32.0,93,30.14,4.0,ENE,8.1,-,0.01,Rain,Light Rain,60,2012-02-05 02:15:00
9:41 PM,33.8,32.0,93,30.13,3.0,ENE,6.9,-,0.01,Rain,Light Rain,70,2012-02-05 02:41:00
9:48 PM,33.8,32.0,93,30.13,4.0,ENE,6.9,-,0.01,Rain,Light Rain,70,2012-02-05 02:48:00
9:53 PM,34.0,32.0,92,30.15,4.0,ENE,5.8,-,0.02,Snow,Light Snow,60,2012-02-05 02:53:00
10:16 PM,33.8,30.2,87,30.13,2.0,NE,6.9,-,0.02,Snow,Light Snow,50,2012-02-05 03:16:00
10:23 PM,33.8,30.2,87,30.13,1.2,ENE,5.8,-,0.03,Snow,Light Snow,60,2012-02-05 03:23:00
10:53 PM,33.1,30.9,92,30.14,2.5,East,3.5,-,0.04,,Overcast,80,2012-02-05 03:53:00
11:08 PM,33.8,30.2,87,30.13,3.0,NE,5.8,-,N/A,,Overcast,50,2012-02-05 04:08:00
11:27 PM,33.8,30.2,87,30.12,2.5,NE,6.9,-,0.00,Snow,Light Snow,50,2012-02-05 04:27:00
11:42 PM,33.8,30.2,87,30.12,1.5,NE,9.2,-,0.01,Snow,Light Snow,40,2012-02-05 04:42:00
11:53 PM,33.1,30.9,92,30.14,1.5,NE,6.9,-,0.01,Snow,Light Snow,50,2012-02-05 04:53:00